Zurück zum Katalog

CZ-6A DEB

AktivPO
NORAD 61139·DEBRIS·🇨🇳 China

Gestartet Aug 6, 2024 von Taiyuan Satellite Launch Center

Loading…

Nächste Überflüge (nächste 24 Stunden)

TLE

AktuellSource: Space-Track

Epoche: Sep 14, 2026, 10:42 UTC

1 61139U 24140QH  26257.44650121  .00000472  00000-0  27132-3 0  9997
2 61139  88.9458 262.8966 0121201 328.1436  31.2453 14.04208042105668

Verfolge CZ-6A DEB in Echtzeit mit AllMySat

Download on the App Store